[[{"header":{"parameterUnit":"m.s-1","parameterCategory":1,"la1":30.2991,"la2":30.254,"lo1":-89.0895,"lo2":-89.0444,"dy":0.0017,"dx":0.0017,"nx":28,"ny":28,"refTime":"2024-05-05T03:00:00:Z","depth":0,"parameterNumber":2,"parameterNumberName":"U-component_of_WINDS"},"data":[0,0,0,0,0,0,0,0,0,0,0,0,0,0,0,0,0,0,0,0,0,0,0,0,0,0,0,0,0,0,0,0,0,0,0,0,0,0,0,0,0,0,0,0,0,0,0,0,0,0,0,0,0,0,0,0,0,0,-1.9275,-1.9275,0,-1.9326,-1.9327,-1.9328,-1.9341,-1.9341,-1.934,-1.934,-1.9394,-1.9396,-1.9397,0,0,0,0,0,0,0,0,0,0,0,0,0,-1.919,-1.9191,-1.9275,-1.9275,-1.9276,-1.9326,-1.9327,-1.9328,-1.9341,-1.9341,-1.934,-1.934,-1.9393,-1.9395,-1.9398,0,0,0,0,0,0,0,0,0,0,0,0,0,-1.9233,-1.9192,-1.9275,-1.9289,-1.9291,-1.9326,-1.9327,-1.9328,-1.9341,-1.9341,-1.934,-1.934,-1.9393,-1.9395,-1.9398,-1.9424,0,0,-1.9406,-1.9407,0,0,0,0,0,0,0,0,-1.923,-1.9236,-1.9286,-1.9288,-1.929,-1.9327,-1.9317,-1.936,-1.9341,-1.9322,-1.934,-1.934,-1.9372,-1.9376,-1.9387,-1.9426,-1.9428,-1.9406,-1.9408,-1.9409,-1.9409,0,0,0,0,0,0,0,-1.9227,-1.9234,-1.9295,-1.9287,-1.9289,-1.9293,-1.9299,-1.9325,-1.9349,-1.9324,-1.9325,-1.9331,-1.9373,-1.9385,-1.9389,-1.9429,-1.9406,-1.9408,-1.941,-1.9411,-1.9493,-1.9493,0,0,0,0,0,0,-1.9222,-1.9231,-1.9294,-1.9297,-1.9258,-1.9295,-1.9301,-1.9315,-1.9349,-1.9354,-1.9331,-1.9331,-1.938,-1.9385,-1.939,-1.9423,-1.9409,-1.9411,-1.9413,-1.9492,-1.9493,-1.9494,0,0,0,0,0,0,-1.922,-1.9227,-1.9292,-1.9264,-1.9273,-1.9297,-1.9313,-1.9317,-1.9328,-1.9354,-1.9359,-1.9338,-1.938,-1.9387,-1.9415,-1.9425,-1.9412,-1.9415,-1.9492,-1.9492,-1.9493,-1.9488,0,0,0,0,0,0,-1.9217,-1.9226,-1.9236,-1.9264,-1.9274,-1.9315,-1.9313,-1.9318,-1.9333,-1.9333,-1.9362,-1.9367,-1.938,-1.9411,-1.9418,-1.9428,-1.9417,-1.9491,-1.9492,-1.9493,-1.9487,-1.9489,-1.949,0,0,0,0,0,-1.9214,-1.9232,-1.9236,-1.9243,-1.9286,-1.9315,-1.9321,-1.9336,-1.9333,-1.9343,-1.936,-1.9366,-1.9423,-1.9414,-1.9422,-1.9433,-1.949,-1.9492,-1.9493,-1.9487,-1.9488,-1.949,0,0,0,0,0,0,-1.9204,-1.9236,-1.9241,-1.9268,-1.9289,-1.9318,-1.933,-1.9337,-1.9359,-1.9359,-1.9377,-1.9383,-1.9411,-1.9425,-1.9414,-1.946,-1.9457,-1.946,-1.945,-1.9451,-1.9452,-1.9448,-1.9419,0,0,0,0,0,-1.9205,-1.9225,-1.9253,-1.9274,-1.9285,-1.9306,-1.9319,-1.9329,-1.9351,-1.936,-1.9379,-1.9401,-1.9424,-1.9439,-1.9461,-1.949,-1.9497,-1.9502,-1.9503,-1.9504,-1.9506,-1.9523,-1.9525,-1.9498,-1.9498,-1.9498,0,0,-1.9207,-1.9227,-1.9239,-1.9273,-1.929,-1.9311,-1.9313,-1.9335,-1.9351,-1.9363,-1.9391,-1.9406,-1.9432,-1.9461,-1.9475,-1.9474,-1.9515,-1.9505,-1.9506,-1.9507,-1.9524,-1.9527,-1.9529,-1.9499,-1.9499,-1.9499,0,0,-1.9222,-1.9239,-1.9259,-1.9277,-1.9302,-1.9317,-1.9322,-1.935,-1.936,-1.9388,-1.9398,-1.9418,-1.9457,-1.9475,-1.949,-1.9513,-1.9519,-1.952,-1.9525,-1.9542,-1.9544,-1.9546,-1.9554,-1.9557,-1.9522,-1.9522,-1.9522,0,-1.9221,-1.9253,-1.9269,-1.9291,-1.9306,-1.9318,-1.9339,-1.9355,-1.9388,-1.9398,-1.9397,-1.9446,-1.9465,-1.9498,-1.9504,-1.9515,-1.9522,-1.9516,-1.9542,-1.9544,-1.9546,-1.9554,-1.9557,-1.9522,-1.9522,-1.9522,-1.9522,0,-1.9251,-1.9273,-1.9287,-1.9317,-1.9334,-1.9355,-1.9375,-1.939,-1.9399,-1.9414,-1.9443,-1.9466,-1.9494,-1.9503,-1.9512,-1.9538,-1.9536,-1.9538,-1.9535,-1.9548,-1.9556,-1.956,-1.9522,-1.9522,-1.9522,-1.9522,0,0,-1.926,-1.9299,-1.9304,-1.9318,-1.9348,-1.9366,-1.9389,-1.9416,-1.9428,-1.9451,-1.947,-1.9504,-1.9506,-1.9523,-1.9534,-1.9548,-1.9566,-1.9549,-1.955,-1.9551,-1.9596,-1.9594,-1.9597,-1.957,-1.9571,-1.9572,-1.9594,0,-1.9278,-1.9318,-1.9333,-1.9366,-1.9387,-1.94,-1.9419,-1.9441,-1.9455,-1.9476,-1.9493,-1.9516,-1.9517,-1.9527,-1.9542,-1.956,-1.9575,-1.9559,-1.9589,-1.959,-1.9581,-1.9601,-1.9599,-1.9619,-1.9597,-1.9598,-1.9598,0,-1.9304,-1.9326,-1.9361,-1.9389,-1.9398,-1.9416,-1.9442,-1.9462,-1.9486,-1.9496,-1.9515,-1.9526,-1.9551,-1.9547,-1.9582,-1.9571,-1.9585,-1.9596,-1.9597,-1.9599,-1.9594,-1.9604,-1.9626,-1.9629,-1.9603,-1.9603,-1.9602,0,-1.9307,-1.9345,-1.9371,-1.9383,-1.9417,-1.9429,-1.9443,-1.9468,-1.9483,-1.9507,-1.9517,-1.9543,-1.9557,-1.9578,-1.9596,-1.9591,-1.963,-1.9627,-1.9639,-1.9638,-1.9645,-1.9644,-1.9669,-1.9655,-1.9655,-1.9655,-1.9655,0,-1.9325,-1.9346,-1.9373,-1.9388,-1.9412,-1.9431,-1.9454,-1.947,-1.9492,-1.9511,-1.9525,-1.9543,-1.9566,-1.9588,-1.9602,-1.9629,-1.9636,-1.9645,-1.9648,-1.9643,-1.9642,-1.9651,-1.965,-1.9656,-1.9656,-1.9655,-1.9655,0,-1.9331,-1.935,-1.9379,-1.9409,-1.9417,-1.9433,-1.9459,-1.9475,-1.9491,-1.9516,-1.9523,-1.9548,-1.9574,-1.9595,-1.9629,-1.9639,-1.9667,-1.9671,-1.9659,-1.966,-1.9671,-1.9669,-1.9701,-1.9707,-1.969,-1.969,-1.969,0,-1.9341,-1.9358,-1.9389,-1.9403,-1.9417,-1.944,-1.9455,-1.9475,-1.9491,-1.9521,-1.9534,-1.9561,-1.9583,-1.9625,-1.9647,-1.9673,-1.9678,-1.9687,-1.9682,-1.9676,-1.9678,-1.9676,-1.9678,-1.9688,-1.9688,-1.9688,-1.9688,0,-1.9358,-1.9366,-1.9388,-1.9414,-1.9432,-1.9453,-1.9475,-1.9486,-1.9509,-1.9527,-1.9553,-1.9571,-1.9606,-1.9633,-1.9662,-1.9678,-1.9687,-1.969,-1.9694,-1.9688,-1.968,-1.9684,-1.966,-1.9689,-1.9688,-1.9688,-1.9688,-1.9688,-1.9366,-1.9381,-1.9406,-1.943,-1.9448,-1.9468,-1.9485,-1.9503,-1.9525,-1.9555,-1.9565,-1.9593,-1.9619,-1.9658,-1.9675,-1.9697,-1.9698,-1.9703,-1.9705,-1.9706,-1.9705,-1.9677,-1.9703,-1.9703,-1.9703,-1.9703,-1.9703,0,-1.9383,-1.9399,-1.9421,-1.9451,-1.947,-1.9477,-1.9501,-1.9517,-1.9541,-1.9564,-1.9586,-1.9617,-1.9643,-1.9668,-1.9695,-1.9709,-1.9714,-1.9715,-1.9714,-1.9718,-1.9703,-1.9697,-1.9711,-1.9711,-1.9711,-1.9711,-1.9711,-1.9711,-1.9394,-1.942,-1.9431,-1.9467,-1.9483,-1.951,-1.9523,-1.9542,-1.956,-1.9594,-1.9616,-1.9632,-1.9655,-1.9685,-1.971,-1.9717,-1.9726,-1.9727,-1.9734,-1.972,-1.9719,-1.9718,-1.9712,-1.9729,-1.9729,-1.9747,-1.9747,-1.9747]},{"header":{"parameterUnit":"m.s-1","parameterCategory":1,"la1":30.2991,"la2":30.254,"lo1":-89.0895,"lo2":-89.0444,"dy":0.0017,"dx":0.0017,"nx":28,"ny":28,"refTime":"2024-05-05T03:00:00:Z","depth":0,"parameterNumber":3,"parameterNumberName":"V-component_of_WINDS"},"data":[0,0,0,0,0,0,0,0,0,0,0,0,0,0,0,0,0,0,0,0,0,0,0,0,0,0,0,0,0,0,0,0,0,0,0,0,0,0,0,0,0,0,0,0,0,0,0,0,0,0,0,0,0,0,0,0,0,0,5.0751,5.0751,0,5.0808,5.0809,5.0809,5.0829,5.0828,5.0828,5.0828,5.0882,5.0884,5.0885,0,0,0,0,0,0,0,0,0,0,0,0,0,5.0654,5.0655,5.0751,5.0751,5.0752,5.0808,5.0809,5.081,5.0829,5.0828,5.0828,5.0828,5.0881,5.0883,5.0885,0,0,0,0,0,0,0,0,0,0,0,0,0,5.0702,5.0656,5.075,5.0768,5.0771,5.0808,5.0809,5.081,5.0829,5.0828,5.0828,5.0828,5.0881,5.0883,5.0886,5.0908,0,0,5.0893,5.0894,0,0,0,0,0,0,0,0,5.0699,5.0705,5.0765,5.0767,5.077,5.0811,5.0795,5.0842,5.0829,5.0807,5.0828,5.0828,5.0858,5.0863,5.0874,5.091,5.0913,5.0893,5.0895,5.0896,5.0897,0,0,0,0,0,0,0,5.0696,5.0703,5.0773,5.0766,5.0769,5.0773,5.0779,5.0804,5.0833,5.0808,5.081,5.0817,5.086,5.0872,5.0875,5.0913,5.0893,5.0896,5.0897,5.0898,5.0972,5.0973,0,0,0,0,0,0,5.069,5.07,5.0771,5.0775,5.0733,5.0775,5.0782,5.0798,5.0833,5.0838,5.0817,5.0818,5.0868,5.0873,5.0877,5.0907,5.0896,5.0898,5.09,5.0972,5.0973,5.0973,0,0,0,0,0,0,5.0688,5.0696,5.0769,5.0738,5.0748,5.0777,5.0795,5.0799,5.0812,5.084,5.0845,5.0824,5.0867,5.0874,5.0901,5.0909,5.0899,5.0902,5.0971,5.0972,5.0973,5.0965,0,0,0,0,0,0,5.0685,5.0695,5.0705,5.0738,5.0749,5.0792,5.0795,5.0801,5.0816,5.0817,5.0848,5.0853,5.0868,5.0897,5.0903,5.0912,5.0904,5.0971,5.0972,5.0973,5.0965,5.0966,5.0966,0,0,0,0,0,5.0681,5.0698,5.0705,5.0713,5.0762,5.0793,5.0799,5.0818,5.0817,5.0826,5.0845,5.0852,5.0907,5.09,5.0907,5.0917,5.097,5.0971,5.0973,5.0964,5.0965,5.0966,0,0,0,0,0,0,5.0662,5.0703,5.0711,5.0739,5.0763,5.0796,5.0808,5.0818,5.084,5.084,5.0861,5.0868,5.0893,5.0907,5.0898,5.0941,5.0939,5.0942,5.093,5.0932,5.0932,5.0928,5.0906,0,0,0,0,0,5.0662,5.0686,5.0719,5.0741,5.0753,5.0779,5.0793,5.0806,5.083,5.0839,5.086,5.0882,5.0905,5.0919,5.0941,5.0967,5.0974,5.0977,5.0978,5.0979,5.098,5.0997,5.0999,5.0977,5.0977,5.0977,0,0,5.0661,5.0686,5.0699,5.0738,5.0758,5.0781,5.0787,5.081,5.0827,5.0842,5.087,5.0886,5.0912,5.0939,5.0952,5.0952,5.0988,5.098,5.098,5.0982,5.0998,5.1,5.1002,5.0977,5.0977,5.0977,0,0,5.067,5.0691,5.0713,5.0734,5.0764,5.0782,5.0787,5.0819,5.0831,5.086,5.0872,5.0892,5.093,5.0949,5.0963,5.0983,5.099,5.0989,5.0993,5.1008,5.101,5.1012,5.1019,5.1022,5.0991,5.0991,5.0991,0,5.0664,5.0701,5.0722,5.0747,5.0764,5.0781,5.0803,5.0821,5.0856,5.0867,5.0867,5.0917,5.0936,5.0968,5.0974,5.0984,5.0991,5.0986,5.1008,5.101,5.1012,5.102,5.1022,5.0991,5.0991,5.0991,5.0991,0,5.0692,5.0717,5.0731,5.0768,5.0786,5.0809,5.0834,5.085,5.0861,5.0878,5.0908,5.0931,5.0959,5.0968,5.0978,5.1002,5.1002,5.1005,5.1003,5.1014,5.1021,5.1024,5.099,5.0991,5.0991,5.0991,0,0,5.0689,5.0741,5.0745,5.0763,5.0799,5.0819,5.0842,5.0872,5.0886,5.091,5.093,5.0963,5.0967,5.0984,5.0996,5.101,5.1025,5.1012,5.1013,5.1014,5.1055,5.1052,5.1055,5.1031,5.1031,5.1032,5.1053,0,5.0704,5.0749,5.0771,5.0806,5.083,5.0848,5.0869,5.0892,5.091,5.0932,5.095,5.0974,5.0976,5.0987,5.1001,5.1021,5.1034,5.1019,5.1049,5.105,5.1043,5.1059,5.1057,5.1075,5.1056,5.1056,5.1057,0,5.0727,5.0754,5.0793,5.0828,5.0839,5.0857,5.0888,5.0909,5.0936,5.0948,5.0968,5.0981,5.1006,5.1003,5.1038,5.1028,5.1041,5.1053,5.1054,5.1057,5.1054,5.1063,5.1081,5.1084,5.1061,5.1061,5.106,0,5.0723,5.0769,5.0798,5.0813,5.0854,5.0867,5.0885,5.0913,5.093,5.0956,5.0967,5.0994,5.1009,5.103,5.105,5.1046,5.1083,5.1082,5.1093,5.1093,5.11,5.1099,5.112,5.1108,5.1108,5.1108,5.1108,0,5.0737,5.076,5.0797,5.0815,5.0842,5.0866,5.0891,5.091,5.0935,5.0956,5.0972,5.0992,5.1017,5.1039,5.1055,5.1082,5.1088,5.1098,5.1102,5.1097,5.1096,5.1106,5.1105,5.1109,5.1109,5.1109,5.1108,0,5.0736,5.0762,5.0796,5.0834,5.0844,5.0862,5.0894,5.0912,5.0931,5.0958,5.0965,5.0994,5.1022,5.1044,5.1079,5.109,5.1119,5.1123,5.111,5.1112,5.1122,5.1121,5.1151,5.1156,5.114,5.114,5.114,0,5.0744,5.0762,5.0803,5.082,5.0839,5.0865,5.0883,5.0908,5.0927,5.0961,5.0975,5.1004,5.1029,5.1072,5.1096,5.1123,5.1128,5.1137,5.1132,5.1127,5.1129,5.1128,5.113,5.1137,5.1137,5.1137,5.1137,0,5.0755,5.0767,5.0794,5.0827,5.0849,5.0875,5.0901,5.0914,5.0943,5.0963,5.0993,5.1012,5.105,5.1079,5.1109,5.1126,5.1137,5.1139,5.1143,5.1138,5.113,5.1135,5.1112,5.1138,5.1138,5.1138,5.1138,5.1138,5.0759,5.0777,5.081,5.084,5.0863,5.0887,5.0907,5.0929,5.0955,5.099,5.1002,5.1033,5.1061,5.1104,5.1121,5.1145,5.1146,5.1152,5.1153,5.1154,5.1154,5.1127,5.115,5.115,5.1151,5.1151,5.1151,0,5.0771,5.0794,5.0821,5.0859,5.0883,5.0893,5.0923,5.0942,5.097,5.0996,5.1022,5.1056,5.1085,5.1112,5.1142,5.1156,5.1161,5.1163,5.1162,5.1166,5.1151,5.1145,5.1158,5.1158,5.1158,5.1158,5.1158,5.1158,5.078,5.0812,5.0829,5.0873,5.0895,5.0927,5.0943,5.0966,5.0988,5.1027,5.1052,5.107,5.1097,5.1129,5.1156,5.1163,5.1173,5.1173,5.1182,5.1168,5.1167,5.1166,5.116,5.1175,5.1175,5.1194,5.1194,5.1195]}]]